TimeCST,TemperatureF,Dew PointF,Humidity,Sea Level PressureIn,VisibilityMPH,Wind Direction,Wind SpeedMPH,Gust SpeedMPH,PrecipitationIn,Events,Conditions,WindDirDegrees,DateUTC
12:13 AM,-16.6,-23.8,70,30.19,10.0,NW,17.3,-,N/A,,Clear,310,2014-03-01 06:13:00
12:33 AM,-16.6,-23.8,70,30.21,10.0,NW,16.1,-,N/A,,Clear,310,2014-03-01 06:33:00
12:54 AM,-18.4,-23.8,76,30.23,10.0,WNW,15.0,-,N/A,,Clear,300,2014-03-01 06:54:00
1:13 AM,-18.4,-23.8,76,30.24,10.0,WNW,17.3,-,N/A,,Clear,300,2014-03-01 07:13:00
1:33 AM,-18.4,-25.6,70,30.25,10.0,NW,15.0,-,N/A,,Clear,310,2014-03-01 07:33:00
1:54 AM,-18.4,-25.6,70,30.26,10.0,NW,15.0,-,N/A,,Clear,310,2014-03-01 07:54:00
2:13 AM,-20.2,-25.6,76,30.27,10.0,NW,16.1,-,N/A,,Clear,310,2014-03-01 08:13:00
2:33 AM,-20.2,-27.4,69,30.27,10.0,NW,15.0,-,N/A,,Clear,310,2014-03-01 08:33:00
2:54 AM,-20.2,-27.4,69,30.27,10.0,NW,16.1,-,N/A,,Clear,310,2014-03-01 08:54:00
3:13 AM,-22.0,-27.4,76,30.28,10.0,NW,13.8,-,N/A,,Clear,310,2014-03-01 09:13:00
3:33 AM,-22.0,-27.4,76,30.29,10.0,NW,13.8,-,N/A,,Clear,310,2014-03-01 09:33:00
3:54 AM,-22.0,-27.4,76,30.29,10.0,NW,15.0,-,N/A,,Clear,320,2014-03-01 09:54:00
4:13 AM,-23.8,-29.2,76,30.29,10.0,NW,13.8,-,N/A,,Clear,320,2014-03-01 10:13:00
4:33 AM,-23.8,-29.2,76,30.30,10.0,NW,13.8,-,N/A,,Clear,320,2014-03-01 10:33:00
4:54 AM,-23.8,-31.0,69,30.30,10.0,NW,11.5,-,N/A,,Clear,320,2014-03-01 10:54:00
5:13 AM,-25.6,-31.0,76,30.32,10.0,NW,11.5,-,N/A,,Clear,310,2014-03-01 11:13:00
5:33 AM,-25.6,-31.0,76,30.33,10.0,WNW,11.5,-,N/A,,Clear,300,2014-03-01 11:33:00
5:53 AM,-25.6,-32.8,69,30.34,10.0,NW,9.2,-,N/A,,Clear,310,2014-03-01 11:53:00
6:13 AM,-25.6,-32.8,69,30.35,10.0,WNW,11.5,-,N/A,,Clear,300,2014-03-01 12:13:00
6:34 AM,-25.6,-32.8,69,30.35,10.0,WNW,11.5,-,N/A,,Clear,300,2014-03-01 12:34:00
6:53 AM,-27.4,-34.6,69,30.35,10.0,WNW,11.5,-,N/A,,Clear,300,2014-03-01 12:53:00
7:13 AM,-27.4,-34.6,69,30.37,10.0,WNW,10.4,-,N/A,,Clear,300,2014-03-01 13:13:00
7:34 AM,-27.4,-34.6,69,30.38,10.0,WNW,10.4,-,N/A,,Clear,300,2014-03-01 13:34:00
7:54 AM,-27.4,-34.6,69,30.39,10.0,West,9.2,-,N/A,,Clear,280,2014-03-01 13:54:00
8:13 AM,-25.6,-32.8,69,30.40,10.0,WNW,12.7,-,N/A,,Clear,290,2014-03-01 14:13:00
8:33 AM,-25.6,-32.8,69,30.41,10.0,WNW,12.7,-,N/A,,Clear,290,2014-03-01 14:33:00
8:54 AM,-25.6,-32.8,69,30.41,10.0,WNW,12.7,-,N/A,,Clear,300,2014-03-01 14:54:00
9:13 AM,-25.6,-32.8,69,30.42,10.0,WNW,9.2,-,N/A,,Clear,300,2014-03-01 15:13:00
9:33 AM,-23.8,-31.0,69,30.42,10.0,WNW,12.7,-,N/A,,Clear,300,2014-03-01 15:33:00
9:54 AM,-22.0,-29.2,69,30.42,10.0,NW,6.9,-,N/A,,Clear,310,2014-03-01 15:54:00
10:13 AM,-20.2,-27.4,69,30.42,10.0,NW,17.3,-,N/A,,Clear,320,2014-03-01 16:13:00
10:33 AM,-20.2,-27.4,69,30.41,7.0,NW,19.6,-,N/A,,Clear,320,2014-03-01 16:33:00
10:54 AM,-18.4,-29.2,58,30.42,10.0,WNW,17.3,-,N/A,,Clear,300,2014-03-01 16:54:00
11:13 AM,-18.4,-27.4,63,30.43,10.0,NW,18.4,-,N/A,,Clear,320,2014-03-01 17:13:00
11:33 AM,-16.6,-29.2,53,30.43,10.0,WNW,15.0,18.4,N/A,,Clear,300,2014-03-01 17:33:00
11:53 AM,-16.6,-29.2,53,30.43,10.0,WNW,18.4,21.9,N/A,,Clear,300,2014-03-01 17:53:00
12:13 PM,-16.6,-29.2,53,30.43,10.0,WNW,23.0,-,N/A,,Clear,290,2014-03-01 18:13:00
12:34 PM,-16.6,-29.2,53,30.43,10.0,West,17.3,24.2,N/A,,Clear,280,2014-03-01 18:34:00
12:53 PM,-16.6,-29.2,53,30.42,10.0,WNW,11.5,23.0,N/A,,Clear,300,2014-03-01 18:53:00
1:13 PM,-14.8,-29.2,48,30.42,10.0,WNW,15.0,23.0,N/A,,Clear,300,2014-03-01 19:13:00
1:34 PM,-14.8,-27.4,53,30.41,10.0,WNW,18.4,21.9,N/A,,Clear,300,2014-03-01 19:34:00
1:53 PM,-13.0,-27.4,49,30.41,10.0,WNW,15.0,18.4,N/A,,Clear,300,2014-03-01 19:53:00
2:13 PM,-13.0,-27.4,49,30.41,10.0,WNW,10.4,13.8,N/A,,Clear,290,2014-03-01 20:13:00
2:34 PM,-13.0,-29.2,44,30.41,10.0,West,13.8,19.6,N/A,,Clear,280,2014-03-01 20:34:00
2:53 PM,-11.2,-29.2,41,30.40,10.0,West,15.0,-,N/A,,Clear,280,2014-03-01 20:53:00
3:13 PM,-13.0,-27.4,49,30.41,10.0,WNW,15.0,-,N/A,,Clear,300,2014-03-01 21:13:00
3:34 PM,-13.0,-27.4,49,30.41,10.0,NW,12.7,-,N/A,,Clear,310,2014-03-01 21:34:00
3:53 PM,-13.0,-29.2,44,30.41,10.0,West,13.8,24.2,N/A,,Clear,270,2014-03-01 21:53:00
4:13 PM,-11.2,-29.2,41,30.42,10.0,West,16.1,19.6,N/A,,Clear,270,2014-03-01 22:13:00
4:34 PM,-13.0,-29.2,44,30.41,10.0,West,15.0,-,N/A,,Clear,280,2014-03-01 22:34:00
4:53 PM,-13.0,-29.2,44,30.41,10.0,West,13.8,-,N/A,,Clear,270,2014-03-01 22:53:00
5:13 PM,-13.0,-29.2,44,30.41,10.0,WSW,11.5,16.1,N/A,,Clear,250,2014-03-01 23:13:00
5:34 PM,-14.8,-29.2,48,30.41,10.0,West,12.7,-,N/A,,Clear,270,2014-03-01 23:34:00
5:53 PM,-14.8,-31.0,44,30.40,10.0,West,6.9,-,N/A,,Clear,270,2014-03-01 23:53:00
6:13 PM,-14.8,-31.0,44,30.39,10.0,West,5.8,-,N/A,,Clear,260,2014-03-02 00:13:00
6:34 PM,-16.6,-31.0,48,30.39,10.0,WSW,9.2,-,N/A,,Clear,250,2014-03-02 00:34:00
6:53 PM,-16.6,-31.0,48,30.39,10.0,WSW,8.1,-,N/A,,Clear,250,2014-03-02 00:53:00
7:13 PM,-16.6,-31.0,48,30.40,10.0,WSW,8.1,-,N/A,,Clear,240,2014-03-02 01:13:00
7:34 PM,-18.4,-29.2,58,30.40,10.0,WSW,8.1,-,N/A,,Clear,250,2014-03-02 01:34:00
7:53 PM,-18.4,-31.0,53,30.39,10.0,SW,6.9,-,N/A,,Clear,230,2014-03-02 01:53:00
8:00 PM,-18.4,-31.0,53,30.39,10.0,SW,5.8,-,N/A,,Clear,220,2014-03-02 02:00:00
8:21 PM,-20.2,-31.0,58,30.40,10.0,WSW,6.9,-,N/A,,Clear,240,2014-03-02 02:21:00
8:41 PM,-20.2,-31.0,58,30.40,10.0,WSW,6.9,-,N/A,,Clear,250,2014-03-02 02:41:00
9:01 PM,-18.4,-29.2,58,30.39,10.0,West,8.1,-,N/A,,Clear,260,2014-03-02 03:01:00
9:21 PM,-20.2,-29.2,63,30.39,10.0,WSW,4.6,-,N/A,,Clear,250,2014-03-02 03:21:00
9:41 PM,-20.2,-29.2,63,30.39,10.0,WSW,6.9,-,N/A,,Clear,240,2014-03-02 03:41:00
10:01 PM,-20.2,-29.2,63,30.39,10.0,WSW,8.1,-,N/A,,Clear,240,2014-03-02 04:01:00
11:01 PM,-22.0,-31.0,63,30.38,10.0,SSW,3.5,-,N/A,,Clear,210,2014-03-02 05:01:00
11:24 PM,-22.0,-29.2,69,30.38,10.0,SSW,3.5,-,N/A,,Clear,210,2014-03-02 05:24:00
11:34 PM,-22.0,-31.0,63,30.38,10.0,SSW,4.6,-,N/A,,Clear,210,2014-03-02 05:34:00
11:53 PM,-23.8,-31.0,69,30.37,10.0,South,4.6,-,N/A,,Clear,190,2014-03-02 05:53:00